[[{"header":{"parameterUnit":"m.s-1","parameterCategory":1,"la1":30.2991,"la2":30.254,"lo1":-89.0895,"lo2":-89.0444,"dy":0.0017,"dx":0.0017,"nx":28,"ny":28,"refTime":"2025-11-30T09:00:00:Z","depth":0,"parameterNumber":2,"parameterNumberName":"U-component_of_WINDS"},"data":[0,0,0,0,0,0,0,0,0,0,0,0,0,0,0,0,0,0,0,0,0,0,0,0,0,0,0,0,0,0,0,0,0,0,0,0,0,0,0,0,0,0,0,0,0,0,0,0,0,0,0,0,0,0,0,0,0,0,-3.4678,-3.4679,0,-3.4789,-3.479,-3.4791,-3.4749,-3.4747,-3.4744,-3.4742,-3.4854,-3.4859,-3.4864,0,0,0,0,0,0,0,0,0,0,0,0,0,-3.4427,-3.4432,-3.4678,-3.4679,-3.4681,-3.4789,-3.479,-3.4792,-3.475,-3.4747,-3.4743,-3.4741,-3.4852,-3.4858,-3.4865,0,0,0,0,0,0,0,0,0,0,0,0,0,-3.4537,-3.4433,-3.4678,-3.4673,-3.4673,-3.4788,-3.479,-3.4792,-3.475,-3.4746,-3.4743,-3.4739,-3.485,-3.4858,-3.4865,-3.4992,0,0,-3.489,-3.4893,0,0,0,0,0,0,0,0,-3.4531,-3.4546,-3.4672,-3.4673,-3.4674,-3.4751,-3.4743,-3.4859,-3.4751,-3.4721,-3.4742,-3.4737,-3.4823,-3.4833,-3.4862,-3.4997,-3.5002,-3.4891,-3.4896,-3.4899,-3.4901,0,0,0,0,0,0,0,-3.4523,-3.4541,-3.4722,-3.4674,-3.4675,-3.4664,-3.4676,-3.4765,-3.4792,-3.4723,-3.4721,-3.4734,-3.4822,-3.4854,-3.4864,-3.5003,-3.489,-3.4898,-3.4903,-3.4906,-3.5247,-3.5251,0,0,0,0,0,0,-3.4515,-3.4535,-3.4718,-3.4725,-3.4592,-3.4672,-3.4684,-3.473,-3.4791,-3.4796,-3.4738,-3.4732,-3.4842,-3.4855,-3.4868,-3.502,-3.4899,-3.4906,-3.4911,-3.5243,-3.5248,-3.5252,0,0,0,0,0,0,-3.451,-3.4532,-3.4714,-3.4629,-3.4652,-3.468,-3.4732,-3.4735,-3.4766,-3.4801,-3.4806,-3.4765,-3.484,-3.4856,-3.4961,-3.5023,-3.491,-3.4917,-3.5238,-3.5244,-3.525,-3.5324,0,0,0,0,0,0,-3.4503,-3.453,-3.4579,-3.4631,-3.4656,-3.4806,-3.4736,-3.474,-3.4781,-3.4774,-3.4829,-3.4834,-3.4838,-3.4949,-3.4969,-3.5032,-3.4924,-3.5232,-3.5241,-3.5248,-3.5317,-3.5332,-3.5346,0,0,0,0,0,-3.4494,-3.4595,-3.4582,-3.4604,-3.4718,-3.481,-3.4824,-3.4828,-3.4786,-3.4835,-3.4857,-3.4832,-3.5013,-3.496,-3.4982,-3.5049,-3.5228,-3.5238,-3.5247,-3.531,-3.5329,-3.5346,0,0,0,0,0,0,-3.455,-3.4602,-3.4588,-3.4709,-3.4755,-3.4803,-3.4865,-3.4848,-3.4907,-3.4899,-3.49,-3.4912,-3.502,-3.5044,-3.4985,-3.5173,-3.5114,-3.5128,-3.5154,-3.5173,-3.5187,-3.518,-3.493,0,0,0,0,0,-3.4576,-3.4647,-3.4689,-3.4791,-3.4815,-3.4836,-3.4876,-3.4875,-3.4923,-3.4942,-3.4972,-3.5019,-3.5086,-3.5131,-3.5194,-3.5319,-3.533,-3.5375,-3.539,-3.5402,-3.5415,-3.5483,-3.5503,-3.5284,-3.5284,-3.5283,0,0,-3.4632,-3.4669,-3.4714,-3.4804,-3.4839,-3.4912,-3.4853,-3.4933,-3.4987,-3.4954,-3.5055,-3.5079,-3.5131,-3.5246,-3.5299,-3.527,-3.5478,-3.5414,-3.5424,-3.543,-3.5495,-3.5515,-3.5534,-3.529,-3.5289,-3.5288,0,0,-3.477,-3.4805,-3.4895,-3.4932,-3.4987,-3.5,-3.5022,-3.5072,-3.5086,-3.5188,-3.5165,-3.5228,-3.5344,-3.5382,-3.5417,-3.5569,-3.5548,-3.5589,-3.5667,-3.5733,-3.5751,-3.5766,-3.5821,-3.584,-3.5602,-3.5602,-3.5602,0,-3.4832,-3.4942,-3.4943,-3.5025,-3.5065,-3.5039,-3.5129,-3.5165,-3.5238,-3.5266,-3.5232,-3.5377,-3.5411,-3.5535,-3.5572,-3.56,-3.5625,-3.5584,-3.5748,-3.5763,-3.5778,-3.583,-3.585,-3.5607,-3.5606,-3.5606,-3.5605,0,-3.5015,-3.5091,-3.5157,-3.5229,-3.5276,-3.5362,-3.5375,-3.5423,-3.5417,-3.5433,-3.5536,-3.5575,-3.5646,-3.5675,-3.567,-3.5799,-3.5779,-3.5747,-3.5688,-3.5803,-3.5852,-3.5872,-3.5613,-3.5612,-3.561,-3.5609,0,0,-3.5193,-3.5264,-3.5288,-3.532,-3.5379,-3.5438,-3.5521,-3.5592,-3.5633,-3.5683,-3.5754,-3.5852,-3.5823,-3.5862,-3.586,-3.5918,-3.6037,-3.5879,-3.588,-3.5907,-3.6181,-3.6206,-3.6229,-3.6022,-3.6026,-3.6029,-3.6177,0,-3.5336,-3.5485,-3.5488,-3.5624,-3.5695,-3.567,-3.5743,-3.5787,-3.5804,-3.5865,-3.5883,-3.5953,-3.5909,-3.5933,-3.5989,-3.601,-3.6092,-3.5999,-3.6088,-3.6091,-3.6077,-3.6254,-3.6281,-3.6418,-3.6196,-3.6199,-3.6201,0,-3.5524,-3.5582,-3.5725,-3.5773,-3.5803,-3.5869,-3.5933,-3.5992,-3.6041,-3.6049,-3.6093,-3.6082,-3.6167,-3.6104,-3.6221,-3.6158,-3.6194,-3.621,-3.6215,-3.6225,-3.6154,-3.6269,-3.6462,-3.6483,-3.6231,-3.6229,-3.6227,0,-3.5641,-3.5754,-3.5854,-3.5882,-3.5941,-3.5988,-3.6014,-3.6059,-3.6101,-3.6156,-3.6183,-3.6248,-3.6284,-3.6334,-3.6341,-3.6294,-3.6458,-3.6395,-3.6467,-3.6467,-3.6504,-3.6502,-3.6706,-3.6526,-3.6525,-3.6525,-3.6524,0,-3.5802,-3.589,-3.5907,-3.5969,-3.6068,-3.607,-3.6167,-3.6189,-3.6229,-3.6294,-3.6276,-3.6337,-3.6342,-3.6405,-3.6411,-3.6507,-3.6523,-3.6532,-3.6532,-3.6534,-3.6533,-3.6559,-3.655,-3.653,-3.6529,-3.6528,-3.6527,0,-3.5949,-3.5964,-3.6072,-3.6118,-3.6132,-3.6203,-3.6242,-3.6301,-3.6315,-3.6398,-3.6417,-3.644,-3.6513,-3.6525,-3.6611,-3.6614,-3.673,-3.672,-3.6714,-3.6713,-3.6784,-3.6778,-3.7013,-3.7044,-3.6842,-3.6844,-3.6846,0,-3.6051,-3.6119,-3.6173,-3.6216,-3.6245,-3.6314,-3.6356,-3.636,-3.6405,-3.6465,-3.6517,-3.6588,-3.6645,-3.6763,-3.6787,-3.6852,-3.6844,-3.6922,-3.6854,-3.6853,-3.6846,-3.6843,-3.6849,-3.6936,-3.6938,-3.694,-3.6941,0,-3.6231,-3.6235,-3.6298,-3.6364,-3.6415,-3.6467,-3.6515,-3.6551,-3.6561,-3.6613,-3.6688,-3.6732,-3.6819,-3.689,-3.6955,-3.6981,-3.6963,-3.6962,-3.6982,-3.6985,-3.6979,-3.6984,-3.6751,-3.6957,-3.6955,-3.6954,-3.6953,-3.6953,-3.636,-3.6419,-3.6466,-3.6537,-3.6574,-3.6619,-3.6677,-3.6699,-3.6762,-3.6834,-3.6832,-3.6914,-3.6959,-3.7044,-3.7075,-3.7138,-3.7113,-3.7142,-3.715,-3.7157,-3.7164,-3.6968,-3.715,-3.7149,-3.7149,-3.7149,-3.7148,0,-3.654,-3.6569,-3.6634,-3.6702,-3.6758,-3.6736,-3.6788,-3.6836,-3.6909,-3.6953,-3.701,-3.7095,-3.7164,-3.7193,-3.726,-3.7305,-3.7299,-3.7323,-3.732,-3.7326,-3.7183,-3.7159,-3.7327,-3.7327,-3.7327,-3.7327,-3.7327,-3.7327,-3.664,-3.6739,-3.6749,-3.6865,-3.6893,-3.6974,-3.7006,-3.7048,-3.7083,-3.718,-3.7237,-3.7256,-3.7294,-3.7363,-3.7425,-3.7431,-3.7457,-3.7485,-3.7488,-3.7354,-3.7336,-3.7319,-3.7297,-3.7491,-3.7491,-3.7626,-3.7628,-3.7629]},{"header":{"parameterUnit":"m.s-1","parameterCategory":1,"la1":30.2991,"la2":30.254,"lo1":-89.0895,"lo2":-89.0444,"dy":0.0017,"dx":0.0017,"nx":28,"ny":28,"refTime":"2025-11-30T09:00:00:Z","depth":0,"parameterNumber":3,"parameterNumberName":"V-component_of_WINDS"},"data":[0,0,0,0,0,0,0,0,0,0,0,0,0,0,0,0,0,0,0,0,0,0,0,0,0,0,0,0,0,0,0,0,0,0,0,0,0,0,0,0,0,0,0,0,0,0,0,0,0,0,0,0,0,0,0,0,0,0,-6.4896,-6.4897,0,-6.4977,-6.4978,-6.4979,-6.4906,-6.4903,-6.49,-6.4897,-6.4975,-6.4979,-6.4984,0,0,0,0,0,0,0,0,0,0,0,0,0,-6.4671,-6.4675,-6.4896,-6.4897,-6.4898,-6.4977,-6.4978,-6.4979,-6.4906,-6.4903,-6.4899,-6.4896,-6.4973,-6.4979,-6.4985,0,0,0,0,0,0,0,0,0,0,0,0,0,-6.4762,-6.4677,-6.4896,-6.4871,-6.487,-6.4977,-6.4978,-6.498,-6.4907,-6.4903,-6.4898,-6.4894,-6.4971,-6.4978,-6.4985,-6.5119,0,0,-6.5008,-6.5011,0,0,0,0,0,0,0,0,-6.4757,-6.477,-6.4874,-6.4873,-6.4872,-6.4927,-6.4927,-6.5026,-6.4908,-6.4893,-6.4897,-6.4892,-6.4962,-6.497,-6.4995,-6.5123,-6.5126,-6.5008,-6.5013,-6.5016,-6.5018,0,0,0,0,0,0,0,-6.475,-6.4766,-6.4928,-6.4875,-6.4874,-6.4854,-6.4862,-6.4946,-6.4951,-6.4894,-6.4889,-6.49,-6.4961,-6.4988,-6.4996,-6.5127,-6.5008,-6.5014,-6.5019,-6.5022,-6.5367,-6.5371,0,0,0,0,0,0,-6.4748,-6.4761,-6.4925,-6.493,-6.4802,-6.4862,-6.4871,-6.4914,-6.495,-6.4952,-6.4903,-6.4896,-6.4978,-6.4988,-6.4998,-6.5156,-6.5016,-6.5022,-6.5027,-6.5362,-6.5368,-6.5373,0,0,0,0,0,0,-6.4743,-6.4763,-6.4922,-6.4845,-6.4863,-6.487,-6.4919,-6.4918,-6.4945,-6.4958,-6.4957,-6.4931,-6.4975,-6.4988,-6.509,-6.5158,-6.5026,-6.5032,-6.5356,-6.5364,-6.537,-6.5473,0,0,0,0,0,0,-6.4737,-6.4762,-6.4814,-6.4846,-6.4868,-6.5014,-6.4923,-6.4922,-6.4958,-6.4949,-6.4983,-6.4984,-6.4972,-6.5079,-6.5097,-6.5165,-6.5038,-6.535,-6.536,-6.5368,-6.5464,-6.5483,-6.55,0,0,0,0,0,-6.4729,-6.4839,-6.4817,-6.4838,-6.4934,-6.5018,-6.503,-6.5016,-6.4964,-6.5016,-6.5023,-6.4983,-6.5148,-6.509,-6.5109,-6.5181,-6.5346,-6.5357,-6.5367,-6.5456,-6.548,-6.5499,0,0,0,0,0,0,-6.4813,-6.4843,-6.4819,-6.4943,-6.4979,-6.5006,-6.5071,-6.5041,-6.5091,-6.508,-6.5058,-6.5067,-6.5174,-6.5187,-6.5123,-6.5311,-6.5238,-6.5253,-6.5299,-6.5321,-6.5339,-6.5333,-6.5044,0,0,0,0,0,-6.4846,-6.4915,-6.4936,-6.5043,-6.5063,-6.5064,-6.51,-6.5086,-6.5121,-6.5135,-6.5151,-6.5185,-6.5244,-6.5283,-6.5338,-6.5466,-6.5471,-6.5524,-6.5542,-6.5557,-6.557,-6.5637,-6.566,-6.5409,-6.5408,-6.5408,0,0,-6.4915,-6.494,-6.4984,-6.5061,-6.5087,-6.5156,-6.5077,-6.5153,-6.5204,-6.5146,-6.5243,-6.5256,-6.5292,-6.5407,-6.5458,-6.5421,-6.5641,-6.5571,-6.5582,-6.5587,-6.565,-6.5674,-6.5695,-6.5416,-6.5415,-6.5413,0,0,-6.5075,-6.5102,-6.5194,-6.5222,-6.5263,-6.5263,-6.5285,-6.5316,-6.5323,-6.542,-6.5378,-6.5436,-6.5539,-6.5567,-6.5594,-6.5764,-6.5728,-6.5783,-6.5876,-6.5942,-6.5961,-6.5979,-6.6038,-6.606,-6.5796,-6.5796,-6.5796,0,-6.5155,-6.526,-6.5244,-6.5324,-6.5358,-6.5311,-6.5402,-6.5429,-6.5486,-6.5509,-6.5468,-6.5596,-6.5617,-6.5737,-6.5778,-6.5802,-6.5825,-6.5779,-6.596,-6.5977,-6.5993,-6.605,-6.6073,-6.5802,-6.5802,-6.5801,-6.58,0,-6.5355,-6.5428,-6.5496,-6.5554,-6.5596,-6.5681,-6.5676,-6.572,-6.5702,-6.5706,-6.5804,-6.5828,-6.5887,-6.5914,-6.5897,-6.6031,-6.6007,-6.5964,-6.5889,-6.6024,-6.6077,-6.6098,-6.5811,-6.5809,-6.5807,-6.5806,0,0,-6.557,-6.5619,-6.5644,-6.5669,-6.5711,-6.5765,-6.5847,-6.5907,-6.5944,-6.5984,-6.6051,-6.6139,-6.6099,-6.613,-6.6115,-6.6172,-6.6304,-6.6121,-6.6121,-6.6153,-6.6452,-6.6484,-6.651,-6.628,-6.6285,-6.6288,-6.6448,0,-6.5732,-6.5877,-6.5865,-6.6001,-6.6067,-6.6023,-6.6094,-6.6126,-6.6132,-6.6186,-6.6191,-6.6254,-6.6196,-6.6215,-6.627,-6.6276,-6.6363,-6.6265,-6.634,-6.6343,-6.6333,-6.6537,-6.6572,-6.6722,-6.6469,-6.6472,-6.6475,0,-6.594,-6.5989,-6.6133,-6.6164,-6.6191,-6.6255,-6.6308,-6.6362,-6.6396,-6.6396,-6.6431,-6.6406,-6.6486,-6.641,-6.6519,-6.6452,-6.6482,-6.649,-6.6495,-6.6501,-6.6417,-6.6548,-6.677,-6.6792,-6.6507,-6.6505,-6.6502,0,-6.6082,-6.6184,-6.6282,-6.6305,-6.6344,-6.639,-6.6408,-6.6438,-6.6474,-6.6519,-6.6542,-6.6596,-6.6625,-6.6665,-6.6654,-6.6601,-6.6765,-6.6689,-6.6766,-6.6766,-6.6802,-6.68,-6.7031,-6.6823,-6.6822,-6.6822,-6.6822,0,-6.6263,-6.6352,-6.6347,-6.6408,-6.6505,-6.649,-6.6586,-6.6598,-6.6625,-6.6685,-6.665,-6.6707,-6.6689,-6.6745,-6.6736,-6.6827,-6.684,-6.6841,-6.6837,-6.6844,-6.6844,-6.6863,-6.6852,-6.6828,-6.6827,-6.6826,-6.6825,0,-6.6438,-6.6438,-6.6543,-6.6571,-6.658,-6.6651,-6.6674,-6.673,-6.6732,-6.6809,-6.6826,-6.6829,-6.6893,-6.6886,-6.6956,-6.6951,-6.7063,-6.7047,-6.7052,-6.7048,-6.7125,-6.7118,-6.7376,-6.7409,-6.718,-6.7182,-6.7184,0,-6.6553,-6.6621,-6.6657,-6.6696,-6.6718,-6.6781,-6.6818,-6.6804,-6.6843,-6.6887,-6.6938,-6.6998,-6.7046,-6.7149,-6.7156,-6.7209,-6.7194,-6.7281,-6.7201,-6.7206,-6.7194,-6.719,-6.7196,-6.7296,-6.7299,-6.7301,-6.7303,0,-6.6758,-6.6754,-6.681,-6.6867,-6.6912,-6.6955,-6.6994,-6.7027,-6.7016,-6.7062,-6.7128,-6.7165,-6.7237,-6.7297,-6.7348,-6.7363,-6.7331,-6.7328,-6.7348,-6.7355,-6.7355,-6.7355,-6.7094,-6.7322,-6.732,-6.7318,-6.7317,-6.7317,-6.6906,-6.6964,-6.6998,-6.7061,-6.7089,-6.7126,-6.718,-6.719,-6.7245,-6.7304,-6.7292,-6.7365,-6.7396,-6.7461,-6.7481,-6.7537,-6.7505,-6.7535,-6.7542,-6.7549,-6.7558,-6.7347,-6.7546,-6.7545,-6.7545,-6.7544,-6.7544,0,-6.7108,-6.7128,-6.7186,-6.7242,-6.7291,-6.7259,-6.73,-6.7342,-6.7408,-6.744,-6.7488,-6.7563,-6.762,-6.7632,-6.7687,-6.7729,-6.7715,-6.7743,-6.7739,-6.7743,-6.7584,-6.756,-6.7753,-6.7753,-6.7753,-6.7753,-6.7753,-6.7753,-6.7219,-6.7315,-6.7315,-6.7424,-6.7443,-6.7516,-6.7542,-6.7575,-6.7601,-6.7686,-6.7735,-6.7742,-6.7766,-6.7822,-6.7872,-6.7874,-6.7895,-6.7929,-6.7925,-6.7776,-6.7755,-6.7735,-6.7713,-6.7934,-6.7934,-6.808,-6.8081,-6.8082]}]]